Date String (YYYY-MM-DD hh:mm:ss) UTC,Instrument flags,Ambient pressure (hPa),Sample flow (lpm),Bypass flow (lpm),Sample temperature (°C),Ambient temperature (°C),ASC tube jacket temperature (°C),LED temperature (°C),Box temperature (°C),Sample RH (%),Span deviation,Mass concentration (μg/m³),Mass concentration (μg/m³),Mass concentration (μg/m³)
DateTimeUTC,F1_M11,P_M11,Q1_M11,Q2_M11,T1_M11,T2_M11,T3_M11,T4_M11,T5_M11,U1_M11,ZSPAN_M11,X0_M11,X2_M11,X1_M11
2021-12-03 16:00:00,,0831.2,4.99,0.00,26.6,25.8,00.0,35.6,28.3,13.9,0000.0,0010.10,0003.62,0002.26
2021-12-03 16:01:00,,0831.2,5.00,0.00,26.6,25.8,00.0,35.6,28.3,14.0,0000.0,0010.08,0003.67,0002.29
2021-12-03 16:02:00,,0831.1,4.99,0.00,26.6,25.8,00.0,35.6,28.3,14.0,0000.0,0010.66,0003.78,0002.34
2021-12-03 16:03:00,,0831.1,5.00,0.00,26.6,25.8,00.0,35.6,28.3,14.0,0000.0,0010.95,0003.81,0002.36
2021-12-03 16:04:00,,0831.1,5.00,0.00,26.6,25.8,00.0,35.6,28.3,14.1,0000.0,0011.85,0003.83,0002.38
2021-12-03 16:05:00,,0831.2,5.02,0.00,26.6,25.8,00.0,35.6,28.3,14.0,0000.0,0012.26,0003.92,0002.40
2021-12-03 16:06:00,,0831.2,5.01,0.00,26.6,25.9,00.0,35.6,28.3,14.0,0000.0,0013.49,0003.97,0002.43
2021-12-03 16:07:00,,0831.2,5.01,0.00,26.6,25.9,00.0,35.6,28.3,13.9,0000.0,0014.24,0004.00,0002.43
2021-12-03 16:08:00,,0831.2,4.99,0.00,26.6,25.9,00.0,35.6,28.4,14.0,0000.0,0014.85,0004.02,0002.44
2021-12-03 16:09:00,,0831.2,5.01,0.00,26.6,25.9,00.0,35.6,28.4,14.0,0000.0,0015.80,0004.00,0002.46
2021-12-03 16:10:00,,0831.2,5.00,0.00,26.6,25.8,00.0,35.6,28.3,13.9,0000.0,0015.71,0004.00,0002.47
2021-12-03 16:11:00,,0831.2,5.01,0.00,26.6,25.8,00.0,35.6,28.3,14.0,0000.0,0015.07,0004.00,0002.47
2021-12-03 16:12:00,,0831.2,4.99,0.00,26.6,25.8,00.0,35.6,28.3,14.0,0000.0,0015.48,0003.99,0002.44
2021-12-03 16:13:00,,0831.2,5.01,0.00,26.6,25.8,00.0,35.6,28.4,14.0,0000.0,0015.43,0003.93,0002.40
2021-12-03 16:14:00,,0831.2,4.99,0.00,26.6,25.8,00.0,35.6,28.4,14.0,0000.0,0015.96,0003.93,0002.38
2021-12-03 16:15:00,,0831.2,5.01,0.00,26.6,25.8,00.0,35.6,28.3,14.0,0000.0,0016.19,0003.88,0002.35
2021-12-03 16:16:00,,0831.2,4.99,0.00,26.6,25.8,00.0,35.6,28.3,14.0,0000.0,0016.49,0003.85,0002.32
2021-12-03 16:17:00,,0831.2,5.01,0.00,26.6,25.8,00.0,35.6,28.3,14.0,0000.0,0016.73,0003.78,0002.28
2021-12-03 16:18:00,,0831.1,4.99,0.00,26.5,25.8,00.0,35.6,28.3,14.0,0000.0,0016.44,0003.75,0002.24
2021-12-03 16:19:00,,0831.1,4.99,0.00,26.5,25.8,00.0,35.6,28.3,14.0,0000.0,0016.47,0003.76,0002.23
2021-12-03 16:20:00,,0831.1,5.01,0.00,26.6,25.8,00.0,35.6,28.3,13.9,0000.0,0015.29,0003.75,0002.22
2021-12-03 16:21:00,,0831.1,4.99,0.00,26.5,25.8,00.0,35.6,28.3,14.0,0000.0,0014.40,0003.65,0002.19
2021-12-03 16:22:00,,0831.1,4.99,0.00,26.5,25.8,00.0,35.6,28.3,14.0,0000.0,0014.60,0003.58,0002.18
2021-12-03 16:23:00,,0831.0,5.01,0.00,26.5,25.8,00.0,35.6,28.3,14.0,0000.0,0014.13,0003.54,0002.18
2021-12-03 16:24:00,,0831.0,4.99,0.00,26.5,25.8,00.0,35.5,28.3,14.0,0000.0,0013.63,0003.46,0002.17
2021-12-03 16:25:00,,0831.0,5.01,0.00,26.5,25.8,00.0,35.6,28.3,14.1,0000.0,0013.60,0003.42,0002.18
2021-12-03 16:26:00,,0831.0,5.00,0.00,26.5,25.8,00.0,35.5,28.3,14.2,0000.0,0013.54,0003.42,0002.17
2021-12-03 16:27:00,,0831.0,5.00,0.00,26.5,25.8,00.0,35.5,28.3,14.2,0000.0,0013.10,0003.40,0002.16
2021-12-03 16:28:00,,0831.0,5.01,0.00,26.5,25.8,00.0,35.5,28.3,14.3,0000.0,0012.18,0003.36,0002.13
2021-12-03 16:29:00,,0831.0,4.99,0.00,26.5,25.8,00.0,35.5,28.3,14.4,0000.0,0011.76,0003.33,0002.09
2021-12-03 16:30:00,,0830.9,5.01,0.00,26.5,25.8,00.0,35.5,28.3,14.5,0000.0,0010.73,0003.20,0002.02
2021-12-03 16:31:00,,0830.9,4.99,0.00,26.5,25.8,00.0,35.5,28.3,14.5,0000.0,0010.73,0003.13,0001.94
2021-12-03 16:32:00,,0830.9,5.01,0.00,26.5,25.7,00.0,35.5,28.3,14.5,0000.0,0010.67,0003.12,0001.87
2021-12-03 16:33:00,,0830.9,4.99,0.00,26.5,25.7,00.0,35.5,28.3,14.5,0000.0,0010.58,0003.10,0001.81
2021-12-03 16:34:00,,0830.9,5.01,0.00,26.5,25.7,00.0,35.5,28.3,14.6,0000.0,0010.37,0003.01,0001.74
2021-12-03 16:35:00,,0830.8,5.01,0.00,26.5,25.7,00.0,35.5,28.2,14.6,0000.0,0010.06,0002.87,0001.66
2021-12-03 16:36:00,,0830.9,4.99,0.00,26.5,25.7,00.0,35.5,28.3,14.7,0000.0,0009.84,0002.70,0001.57
2021-12-03 16:37:00,,0830.9,5.01,0.00,26.5,25.8,00.0,35.5,28.3,14.7,0000.0,0008.96,0002.61,0001.49
2021-12-03 16:38:00,,0830.8,5.00,0.00,26.5,25.8,00.0,35.5,28.3,14.7,0000.0,0008.50,0002.42,0001.42
2021-12-03 16:39:00,,0830.8,5.00,0.00,26.5,25.8,00.0,35.5,28.3,14.6,0000.0,0008.30,0002.42,0001.40
2021-12-03 16:40:00,,0830.8,5.00,0.00,26.5,25.8,00.0,35.5,28.3,14.5,0000.0,0008.26,0002.42,0001.39
2021-12-03 16:41:00,,0830.8,4.99,0.00,26.5,25.8,00.0,35.5,28.3,14.6,0000.0,0008.89,0002.50,0001.40
2021-12-03 16:42:00,,0830.8,5.01,0.00,26.5,25.8,00.0,35.5,28.3,14.6,0000.0,0009.53,0002.57,0001.41
2021-12-03 16:43:00,,0830.7,4.99,0.00,26.5,25.8,00.0,35.5,28.3,14.6,0000.0,0009.47,0002.59,0001.42
2021-12-03 16:44:00,,0830.7,5.02,0.00,26.5,25.8,00.0,35.5,28.3,14.7,0000.0,0009.33,0002.63,0001.42
2021-12-03 16:45:00,,0830.6,5.00,0.00,26.5,25.8,00.0,35.5,28.3,14.8,0000.0,0008.98,0002.66,0001.42
2021-12-03 16:46:00,,0830.6,5.00,0.00,26.5,25.8,00.0,35.5,28.3,14.9,0000.0,0009.11,0002.71,0001.42
2021-12-03 16:47:00,,0830.6,4.98,0.00,26.5,25.8,00.0,35.5,28.3,14.9,0000.0,0008.79,0002.76,0001.41
2021-12-03 16:48:00,,0830.6,5.01,0.00,26.5,25.8,00.0,35.5,28.2,14.9,0000.0,0008.29,0002.74,0001.41
2021-12-03 16:49:00,,0830.6,4.99,0.00,26.5,25.8,00.0,35.5,28.3,14.9,0000.0,0008.22,0002.78,0001.43
2021-12-03 16:50:00,,0830.6,5.01,0.00,26.5,25.8,00.0,35.5,28.3,14.8,0000.0,0008.19,0002.77,0001.43
2021-12-03 16:51:00,,0830.6,5.00,0.00,26.5,25.8,00.0,35.5,28.3,14.9,0000.0,0008.00,0002.70,0001.41
2021-12-03 16:52:00,,0830.6,5.00,0.00,26.5,25.8,00.0,35.5,28.3,14.9,0000.0,0007.37,0002.65,0001.40
2021-12-03 16:53:00,,0830.6,4.99,0.00,26.5,25.8,00.0,35.5,28.3,14.9,0000.0,0006.03,0002.51,0001.38
2021-12-03 16:54:00,,0830.5,5.00,0.00,26.5,25.9,00.0,35.5,28.3,14.9,0000.0,0006.27,0002.44,0001.36
2021-12-03 16:55:00,,0830.5,5.00,0.00,26.6,25.9,00.0,35.5,28.3,14.8,0000.0,0006.37,0002.35,0001.36
2021-12-03 16:56:00,,0830.5,5.00,0.00,26.6,25.9,00.0,35.5,28.3,14.7,0000.0,0007.64,0002.29,0001.38
2021-12-03 16:57:00,,0830.5,5.00,0.00,26.6,25.9,00.0,35.5,28.4,14.7,0000.0,0008.40,0002.31,0001.41
2021-12-03 16:58:00,,0830.4,4.99,0.00,26.6,25.9,00.0,35.6,28.4,14.7,0000.0,0008.73,0002.32,0001.44
2021-12-03 16:59:00,,0830.4,5.01,0.00,26.6,25.9,00.0,35.6,28.4,14.8,0000.0,0008.93,0002.34,0001.48
